Hourly Data Report for September 18, 2017

All times are specified in Local Standard Time (LST). Add 1 hour to adjust for Daylight Saving Time where and when it is observed.

COMOX A
BRITISH COLUMBIA

49°43'00.000" N
124°54'00.000" W
25.60 m
1021830
71893
YQQ

Download Data

Hourly Data (September 2017)
Hourly Data Report for September 18, 2017
Temp Definition
°C
Dew Point Temp Definition
°C
Rel Hum Definition
%
Wind Dir Definition
10's deg

Wind Spd Definition
km/h
Visibility Definition
km
Stn Press Definition
kPa
Hmdx Definition


Wind Chill Definition


Weather Definition


TIME
00:00 9.6 8.4 92   0 32.2 100.40     Mostly Cloudy
01:00 8.6 7.8 95   0 32.2 100.41     Mostly Cloudy
02:00 7.8 7.2 96 30 4 32.2 100.37     Mostly Cloudy
03:00 7.3 7.1 99   0 32.2 100.30     Mostly Cloudy
04:00 6.9 6.2 95   0 32.2 100.29     Mainly Clear
05:00 6.2 5.9 98 27 4 32.2 100.28     Mainly Clear
06:00 6.2 6.0 99 20 4 32.2 100.31     Mostly Cloudy
07:00 7.1 6.3 95 36 4 32.2 100.33     Mainly Clear
08:00 9.9 8.5 91 31 4 32.2 100.30     Mainly Clear
09:00 12.9 7.2 68   0 32.2 100.32     Mainly Clear
10:00 12.8 6.6 66 8 6 32.2 100.33     Mainly Clear
11:00 13.9 7.9 67 13 15 32.2 100.30     Mainly Clear
12:00 14.2 7.5 64 12 20 32.2 100.26     Mostly Cloudy
13:00 15.0 7.2 60 13 22 32.2 100.23     Mostly Cloudy
14:00 14.4 7.0 61 13 28 32.2 100.20     Mostly Cloudy
15:00 14.0 7.9 67 16 24 32.2 100.20     Mostly Cloudy
16:00 13.7 8.9 73 16 17 32.2 100.17     Mostly Cloudy
17:00 13.6 9.2 75 16 17 32.2 100.15     Rain Showers
18:00 13.1 10.0 81 17 9 16.1 100.15     Rain Showers
19:00 11.0 9.2 89 22 9 16.1 100.16     Rain Showers
20:00 10.8 9.2 90 8 4 24.1 100.18     Rain Showers
21:00 10.7 9.5 92 16 6 24.1 100.17     Rain Showers
22:00 10.6 9.5 93 24 4 24.1 100.17     Rain Showers
23:00 10.1 9.5 96 29 6 32.2 100.19     Rain Showers

Notes on Data Quality.

Legend

  • E = Estimated
  • M = Missing
  • NA = Not Available
  • ‡ = Partner data that is not subject to review by the National Climate Archives
Date modified: